SPAINSAT

Last updated on Wed Sep 17 2025 00:02:46 GMT+0000 (Coordinated Universal Time)

1 28945U 06007A 25259.09627245 -.00000234 00000+0 00000+0 0 9997 2 28945 0.0397 242.8125 0005670 316.3681 160.7985 1.00272640 71465
UTC large
Height (km)
Speed (km/s)
/
Latitude / Longitude
Inclination (degrees)
Orbital Period (minutes)
Azimuth
Elevation
Range (km)
Doppler Factor

Next 0 passes for location: London (51.5072 / 0.1276)

Sorry there are no passes over London.